STARLINK-11626, 63556

Orbit data source: Space-Track

STARLINK-11626, 63556 is a payload satellite owned by SpaceX/Seattle (US) in LEO that was launched on Sun, 13 Apr 2025 UTC via an FALCON 9 launch vehicle from the Air Force Eastern Test Range (AFETR). Payload-class satellites include a variety of spacecraft equipped with specific instruments for various scientific and technological missions. These include communications satellites like Starlink; space stations such as the ISS; scientific satellites like the Hubble; Earth observation satellites from companies like Planet Labs, Umbra, and HawkEye 360; GPS; miniature CubeSats for education and research; and military/defense satellites.

Loading next visibility...
Identifier
63556, 2025-075J
Orbit
LEO
Last TLE update
13 hours ago
Origin
Manufacturer
SpaceX/Seattle
Mission
Operational spacecraft
Bus & Motor
STARLINK V2M, Unknown motor
Mass
730 kg wet, ~700 kg dry
Launch date (UTC)
2025-04-13 (3 weeks ago)
Launch vehicle
FALCON 9
Launch site
Air Force Eastern Test Range (AFETR)
Object type
Payload
Rocket body
Debris
Shape & HBR
Unknown
Radar Cross Section
Large (>1 m²)

Expand to show TLE details & history

TLE from 13 hours ago
0 STARLINK-11626
1 63556U 25075J   25125.58334491 -.00081932  00000-0 -47250-3 0  9992
2 63556  43.0002 212.9420 0001517 274.4164 300.2006 15.77854843  4768
Epoch: 2025-05-05T14:00Z
Definitive object data (Epoch: 2025-05-05T14:00:01Z)
Latitude
-22.95278°
Longitude
-13.91109°
Altitude
341.416 km
Speed
7.705 km/s
True Right ascension
03h 59m 09s
True Declination
-22° 49' 19"
Sunlit
Object was in daylight at TLE epoch
Visualization TLE readout
Latitude
21.51229°
Longitude
-69.01015°
Altitude
336.922 km
Speed
7.71 km/s
Apparent Right ascension
23h 52m 55s
Apparent Declination
-8° 20' 59"
Sunlit
Object is in daylight
Visualization observer readout
Local Sidereal Time
11:19:56
Azimuth
344.646° N
Elevation
-57.585°
Doppler factor
1
Orbital elements
Apogee altitude
339.526 km
Perigee altitude
337.488 km
Semi-major axis
6,716.644 km
Eccentricity
0.0001517
Inclination
43.0002°
RAAN
212.942°
Arg. of periapsis
274.4164°
True anomaly
300.18557°
Mean anomaly
300.2006°
Eccentric anomaly
300.19309°
Mean motion
3.94289 °/min
BSTAR
-0.0004725
Orbital period
91.3 mins
Loading maneuver chart data...
Loading SW <> Apogee altitude chart data...
Loading historical data...
Loading historical data...
Loading historical data...
Loading historical data...
Loading historical data...
Loading historical data...
Loading historical data...

STARLINK-11626 Visibility forecast

Observer location: undefined°, undefined°

Span
Click to sort rows by Start time (UTC) header in descending order
Start Az.
Max El. time (UTC)
Max El. Az.
Max El.
End time (UTC)
End Az.
4 mins2025-05-06 09:03:26.060Z211.329° SW2025-05-06 09:05:26.060Z158.785° S26.247°2025-05-06 09:07:26.060Z95.315° ESE
4 mins2025-05-06 10:39:26.060Z271.412° WNW2025-05-06 10:41:26.060Z18.34° NNE39.393°2025-05-06 10:43:26.060Z66.517° ENE
4 mins2025-05-06 12:15:26.060Z300.152° NW2025-05-06 12:17:26.060Z30.23° NE32.867°2025-05-06 12:19:26.060Z76.852° E
4 mins2025-05-06 13:51:26.060Z279.477° WNW2025-05-06 13:52:26.060Z254.792° W39.982°2025-05-06 13:55:26.060Z118.273° SE
|